Time,TemperatureF,DewpointF,PressureIn,WindDirection,WindDirectionDegrees,WindSpeedMPH,WindSpeedGustMPH,Humidity,HourlyPrecipIn,Conditions,Clouds,dailyrainin,SolarRadiationWatts/m^2,SoftwareType,DateUTC
2013-01-26 00:20:00,17.4,13.9,30.09,NE,51,0.0,0.0,86,0.00,,CLR,0.00,0.00,VWS V14.01,2013-01-26 05:20:00,
2013-01-26 00:25:00,17.4,14.2,30.09,SSW,205,0.0,0.0,87,0.00,,CLR,0.00,0.00,VWS V14.01,2013-01-26 05:25:00,
2013-01-26 00:30:00,17.4,13.9,30.09,SSW,205,0.0,0.0,86,0.00,,CLR,0.00,0.00,VWS V14.01,2013-01-26 05:30:00,
2013-01-26 00:36:00,17.4,14.2,30.09,SSW,205,0.0,0.0,87,0.00,,CLR,0.00,0.00,VWS V14.01,2013-01-26 05:36:00,
2013-01-26 00:41:00,17.4,13.9,30.09,SSW,205,0.0,0.0,86,0.00,,CLR,0.00,0.00,VWS V14.01,2013-01-26 05:41:00,
2013-01-26 00:46:00,17.4,13.9,30.09,WSW,253,0.0,0.0,86,0.00,,CLR,0.00,0.00,VWS V14.01,2013-01-26 05:46:00,
2013-01-26 00:51:00,17.4,13.9,30.09,WSW,254,0.0,0.0,86,0.00,,CLR,0.00,0.00,VWS V14.01,2013-01-26 05:51:00,
2013-01-26 00:56:00,17.6,14.1,30.09,SSE,168,2.0,2.0,86,0.00,,CLR,0.00,0.00,VWS V14.01,2013-01-26 05:56:00,
2013-01-26 01:01:00,17.6,14.4,30.09,NW,322,0.0,3.0,87,0.00,,CLR,0.00,0.00,VWS V14.01,2013-01-26 06:01:00,
2013-01-26 01:06:00,17.6,14.4,30.08,NW,322,0.0,0.0,87,0.00,,CLR,0.00,0.00,VWS V14.01,2013-01-26 06:06:00,
2013-01-26 01:11:00,17.6,14.4,30.08,NW,322,0.0,2.0,87,0.00,,CLR,0.00,0.00,VWS V14.01,2013-01-26 06:11:00,
2013-01-26 01:16:00,17.8,14.6,30.08,NW,322,0.0,0.0,87,0.00,,CLR,0.00,0.00,VWS V14.01,2013-01-26 06:16:00,
2013-01-26 01:21:00,17.8,14.6,30.08,NW,325,0.0,2.0,87,0.00,,CLR,0.00,0.00,VWS V14.01,2013-01-26 06:21:00,
2013-01-26 01:26:00,17.8,14.6,30.08,NW,325,0.0,0.0,87,0.00,,CLR,0.00,0.00,VWS V14.01,2013-01-26 06:26:00,
2013-01-26 01:32:00,17.8,14.6,30.08,NNW,333,0.0,2.0,87,0.00,,CLR,0.00,0.00,VWS V14.01,2013-01-26 06:32:00,
2013-01-26 01:37:00,17.8,14.6,30.08,West,281,1.0,2.0,87,0.00,,CLR,0.00,0.00,VWS V14.01,2013-01-26 06:37:00,
2013-01-26 01:42:00,17.8,14.6,30.08,NNW,344,2.0,3.0,87,0.00,,CLR,0.00,0.00,VWS V14.01,2013-01-26 06:42:00,
2013-01-26 01:47:00,17.9,14.7,30.08,NW,315,0.0,4.0,87,0.00,,CLR,0.00,0.00,VWS V14.01,2013-01-26 06:47:00,
2013-01-26 01:52:00,17.9,14.7,30.08,NNW,328,0.0,6.0,87,0.00,,CLR,0.00,0.00,VWS V14.01,2013-01-26 06:52:00,
2013-01-26 01:57:00,18.1,14.9,30.08,SSW,208,0.0,4.0,87,0.00,,CLR,0.00,0.00,VWS V14.01,2013-01-26 06:57:00,
2013-01-26 02:02:00,18.1,14.9,30.08,North,1,0.0,4.0,87,0.00,,CLR,0.00,0.00,VWS V14.01,2013-01-26 07:02:00,
2013-01-26 02:07:00,18.2,15.0,30.09,SSE,148,1.0,3.0,87,0.00,,CLR,0.00,0.00,VWS V14.01,2013-01-26 07:07:00,
2013-01-26 02:12:00,18.4,15.2,30.09,North,359,0.0,4.0,87,0.00,,CLR,0.00,0.00,VWS V14.01,2013-01-26 07:12:00,
2013-01-26 02:17:00,18.4,15.2,30.09,North,4,1.0,2.0,87,0.00,,CLR,0.00,0.00,VWS V14.01,2013-01-26 07:17:00,
2013-01-26 02:23:00,18.4,15.2,30.09,NNE,17,0.0,2.0,87,0.00,,CLR,0.00,0.00,VWS V14.01,2013-01-26 07:23:00,
2013-01-26 02:28:00,18.5,15.3,30.09,South,191,0.0,3.0,87,0.00,,CLR,0.00,0.00,VWS V14.01,2013-01-26 07:28:00,
2013-01-26 02:33:00,18.5,15.3,30.09,ESE,106,1.0,5.0,87,0.00,,CLR,0.00,0.00,VWS V14.01,2013-01-26 07:33:00,
2013-01-26 02:38:00,19.2,16.2,30.09,East,97,3.0,8.0,88,0.00,,CLR,0.00,0.00,VWS V14.01,2013-01-26 07:38:00,
2013-01-26 02:43:00,20.3,17.3,30.09,NE,51,1.0,8.0,88,0.00,,CLR,0.00,0.00,VWS V14.01,2013-01-26 07:43:00,
2013-01-26 02:48:00,21.1,17.6,30.09,NE,55,0.0,5.0,86,0.00,,CLR,0.00,0.00,VWS V14.01,2013-01-26 07:48:00,
2013-01-26 02:53:00,21.1,17.0,30.10,NE,55,0.0,5.0,84,0.00,,CLR,0.00,0.00,VWS V14.01,2013-01-26 07:53:00,
2013-01-26 02:58:00,21.1,17.0,30.10,ENE,62,1.0,6.0,84,0.00,,CLR,0.00,0.00,VWS V14.01,2013-01-26 07:58:00,
2013-01-26 03:03:00,21.4,17.3,30.10,NNE,32,5.0,8.0,84,0.00,,CLR,0.00,0.00,VWS V14.01,2013-01-26 08:03:00,
2013-01-26 03:08:00,22.2,17.5,30.10,NE,44,6.0,10.0,82,0.00,,CLR,0.00,0.00,VWS V14.01,2013-01-26 08:08:00,
2013-01-26 03:13:00,22.8,17.6,30.10,NE,35,2.0,11.0,80,0.00,,CLR,0.00,0.00,VWS V14.01,2013-01-26 08:13:00,
2013-01-26 03:18:00,23.7,17.9,30.10,NNE,17,3.0,7.0,78,0.00,,CLR,0.00,0.00,VWS V14.01,2013-01-26 08:18:00,
2013-01-26 03:24:00,24.6,17.8,30.10,East,82,6.0,10.0,75,0.00,,CLR,0.00,0.00,VWS V14.01,2013-01-26 08:24:00,
2013-01-26 03:29:00,25.0,18.2,30.10,NNE,32,5.0,10.0,75,0.00,,CLR,0.00,0.00,VWS V14.01,2013-01-26 08:29:00,
2013-01-26 03:34:00,25.9,18.1,30.10,NE,41,5.0,11.0,72,0.00,,CLR,0.00,0.00,VWS V14.01,2013-01-26 08:34:00,
2013-01-26 03:39:00,26.5,17.7,30.10,NNE,16,3.0,9.0,69,0.00,,CLR,0.00,0.00,VWS V14.01,2013-01-26 08:39:00,
2013-01-26 03:44:00,26.8,18.0,30.10,NNE,32,5.0,9.0,69,0.00,,CLR,0.00,0.00,VWS V14.01,2013-01-26 08:44:00,
2013-01-26 03:49:00,26.8,17.7,30.10,NE,47,2.0,7.0,68,0.00,,CLR,0.00,0.00,VWS V14.01,2013-01-26 08:49:00,
2013-01-26 03:54:00,26.9,17.4,30.10,NE,47,5.0,7.0,67,0.00,,CLR,0.00,0.00,VWS V14.01,2013-01-26 08:54:00,
2013-01-26 03:59:00,27.1,17.6,30.10,NE,54,3.0,6.0,67,0.00,,CLR,0.00,0.00,VWS V14.01,2013-01-26 08:59:00,
2013-01-26 04:04:00,27.4,17.5,30.10,NE,41,2.0,8.0,66,0.00,,CLR,0.00,0.00,VWS V14.01,2013-01-26 09:04:00,
2013-01-26 04:09:00,27.4,17.2,30.10,ENE,66,3.0,6.0,65,0.00,,CLR,0.00,0.00,VWS V14.01,2013-01-26 09:09:00,
2013-01-26 04:14:00,27.2,17.0,30.10,NE,55,4.0,6.0,65,0.00,,CLR,0.00,0.00,VWS V14.01,2013-01-26 09:14:00,
2013-01-26 04:19:00,27.4,16.5,30.11,NE,41,3.0,10.0,63,0.00,,CLR,0.00,0.00,VWS V14.01,2013-01-26 09:19:00,
2013-01-26 04:24:00,27.4,16.8,30.11,NNE,17,0.0,10.0,64,0.00,,CLR,0.00,0.00,VWS V14.01,2013-01-26 09:24:00,
2013-01-26 04:30:00,27.4,16.5,30.11,NNE,13,2.0,7.0,63,0.00,,CLR,0.00,0.00,VWS V14.01,2013-01-26 09:30:00,
2013-01-26 04:35:00,27.4,16.5,30.12,NNE,16,5.0,7.0,63,0.00,,CLR,0.00,0.00,VWS V14.01,2013-01-26 09:35:00,
2013-01-26 04:40:00,27.7,16.8,30.12,North,0,7.0,7.0,63,0.00,,CLR,0.00,0.00,VWS V14.01,2013-01-26 09:40:00,
2013-01-26 04:45:00,27.8,16.9,30.12,NNE,16,3.0,7.0,63,0.00,,CLR,0.00,0.00,VWS V14.01,2013-01-26 09:45:00,
2013-01-26 04:50:00,28.0,15.5,30.12,North,0,5.0,11.0,59,0.00,,CLR,0.00,0.00,VWS V14.01,2013-01-26 09:50:00,
2013-01-26 04:55:00,28.0,15.5,30.12,NNW,340,7.0,11.0,59,0.00,,CLR,0.00,0.00,VWS V14.01,2013-01-26 09:55:00,
2013-01-26 05:00:00,28.1,15.6,30.12,NNW,340,3.0,8.0,59,0.00,,CLR,0.00,0.00,VWS V14.01,2013-01-26 10:00:00,
2013-01-26 05:05:00,28.0,15.5,30.13,North,350,7.0,7.0,59,0.00,,CLR,0.00,0.00,VWS V14.01,2013-01-26 10:05:00,
2013-01-26 05:10:00,28.1,14.8,30.13,NNW,339,2.0,11.0,57,0.00,,CLR,0.00,0.00,VWS V14.01,2013-01-26 10:10:00,
2013-01-26 05:15:00,28.1,14.4,30.13,NW,325,6.0,6.0,56,0.00,,CLR,0.00,0.00,VWS V14.01,2013-01-26 10:15:00,
2013-01-26 05:20:00,28.1,14.8,30.13,North,0,3.0,9.0,57,0.00,,CLR,0.00,0.00,VWS V14.01,2013-01-26 10:20:00,
2013-01-26 05:26:00,28.1,14.8,30.13,NW,323,7.0,7.0,57,0.00,,CLR,0.00,0.00,VWS V14.01,2013-01-26 10:26:00,
2013-01-26 05:31:00,28.1,14.8,30.13,North,0,6.0,8.0,57,0.00,,CLR,0.00,0.00,VWS V14.01,2013-01-26 10:31:00,
2013-01-26 05:36:00,28.1,14.8,30.13,WNW,294,19.0,19.0,57,0.00,,CLR,0.00,0.00,VWS V14.01,2013-01-26 10:36:00,
2013-01-26 05:41:00,28.1,15.2,30.13,NNW,328,7.0,19.0,58,0.00,,CLR,0.00,0.00,VWS V14.01,2013-01-26 10:41:00,
2013-01-26 05:46:00,28.0,15.1,30.13,North,0,2.0,7.0,58,0.00,,CLR,0.00,0.00,VWS V14.01,2013-01-26 10:46:00,
2013-01-26 05:51:00,28.0,15.1,30.14,NW,318,12.0,13.0,58,0.00,,CLR,0.00,0.00,VWS V14.01,2013-01-26 10:51:00,
2013-01-26 05:56:00,28.0,15.5,30.14,North,349,7.0,11.0,59,0.00,,CLR,0.00,0.00,VWS V14.01,2013-01-26 10:56:00,
2013-01-26 06:02:00,27.8,15.4,30.14,North,353,5.0,12.0,59,0.00,,CLR,0.00,0.00,VWS V14.01,2013-01-26 11:02:00,
2013-01-26 06:07:00,27.8,15.7,30.14,North,359,5.0,11.0,60,0.00,,CLR,0.00,0.00,VWS V14.01,2013-01-26 11:07:00,
2013-01-26 06:12:00,27.7,15.6,30.14,NW,308,6.0,11.0,60,0.00,,CLR,0.00,0.00,VWS V14.01,2013-01-26 11:12:00,
2013-01-26 06:17:00,27.7,15.3,30.14,WNW,301,8.0,8.0,59,0.00,,CLR,0.00,0.00,VWS V14.01,2013-01-26 11:17:00,
2013-01-26 06:22:00,27.7,16.0,30.16,NNW,332,2.0,8.0,61,0.00,,CLR,0.00,0.00,VWS V14.01,2013-01-26 11:22:00,
2013-01-26 06:27:00,27.5,15.4,30.16,NNW,333,7.0,7.0,60,0.00,,CLR,0.00,0.00,VWS V14.01,2013-01-26 11:27:00,
2013-01-26 06:32:00,27.7,16.0,30.16,West,272,6.0,8.0,61,0.00,,CLR,0.00,0.00,VWS V14.01,2013-01-26 11:32:00,
2013-01-26 06:37:00,27.5,16.2,30.16,North,354,6.0,7.0,62,0.00,,CLR,0.00,0.00,VWS V14.01,2013-01-26 11:37:00,
2013-01-26 06:42:00,27.5,15.8,30.16,North,0,0.0,7.0,61,0.00,,CLR,0.00,0.00,VWS V14.01,2013-01-26 11:42:00,
2013-01-26 06:47:00,27.5,15.8,30.16,North,356,3.0,6.0,61,0.00,,CLR,0.00,0.00,VWS V14.01,2013-01-26 11:47:00,
2013-01-26 06:53:00,27.4,16.1,30.17,NW,326,0.0,7.0,62,0.00,,CLR,0.00,0.00,VWS V14.01,2013-01-26 11:53:00,
2013-01-26 06:58:00,27.4,16.1,30.17,NW,319,3.0,4.0,62,0.00,,CLR,0.00,0.00,VWS V14.01,2013-01-26 11:58:00,
2013-01-26 07:03:00,27.4,16.1,30.17,NNW,344,1.0,4.0,62,0.00,,CLR,0.00,0.00,VWS V14.01,2013-01-26 12:03:00,
2013-01-26 07:08:00,27.2,15.9,30.17,NNW,344,0.0,0.0,62,0.00,,CLR,0.00,0.00,VWS V14.01,2013-01-26 12:08:00,
2013-01-26 07:13:00,27.2,16.3,30.17,NNW,344,0.0,0.0,63,0.00,,CLR,0.00,0.00,VWS V14.01,2013-01-26 12:13:00,
2013-01-26 07:18:00,27.1,16.2,30.17,NNW,344,0.0,0.0,63,0.00,,CLR,0.00,0.00,VWS V14.01,2013-01-26 12:18:00,
2013-01-26 07:23:00,26.9,16.0,30.18,NNW,344,0.0,0.0,63,0.00,,CLR,0.00,0.00,VWS V14.01,2013-01-26 12:23:00,
2013-01-26 07:28:00,26.9,16.0,30.18,NNW,347,0.0,0.0,63,0.00,,CLR,0.00,0.00,VWS V14.01,2013-01-26 12:28:00,
2013-01-26 07:33:00,26.8,16.3,30.18,NNW,347,0.0,0.0,64,0.00,,CLR,0.00,0.00,VWS V14.01,2013-01-26 12:33:00,
2013-01-26 07:38:00,26.8,16.3,30.19,NNW,346,0.0,0.0,64,0.00,,CLR,0.00,5.00,VWS V14.01,2013-01-26 12:38:00,
2013-01-26 07:44:00,26.6,16.4,30.19,NNW,346,0.0,0.0,65,0.00,,CLR,0.00,5.00,VWS V14.01,2013-01-26 12:44:00,
2013-01-26 07:49:00,26.6,16.4,30.19,NNW,347,0.0,0.0,65,0.00,,CLR,0.00,9.00,VWS V14.01,2013-01-26 12:49:00,
2013-01-26 07:54:00,26.5,16.3,30.20,NNW,347,0.0,0.0,65,0.00,,CLR,0.00,9.00,VWS V14.01,2013-01-26 12:54:00,
2013-01-26 07:59:00,26.5,16.3,30.20,NNW,347,0.0,0.0,65,0.00,,CLR,0.00,11.00,VWS V14.01,2013-01-26 12:59:00,
2013-01-26 08:04:00,26.5,16.3,30.20,NNW,346,0.0,0.0,65,0.00,,CLR,0.00,14.00,VWS V14.01,2013-01-26 13:04:00,
2013-01-26 08:09:00,26.5,16.7,30.20,NNW,346,0.0,0.0,66,0.00,,CLR,0.00,16.00,VWS V14.01,2013-01-26 13:09:00,
2013-01-26 08:14:00,26.5,16.7,30.20,NNW,347,0.0,0.0,66,0.00,,CLR,0.00,18.00,VWS V14.01,2013-01-26 13:14:00,
2013-01-26 08:19:00,26.5,17.0,30.21,NNW,346,0.0,0.0,67,0.00,,CLR,0.00,25.00,VWS V14.01,2013-01-26 13:19:00,
2013-01-26 08:24:00,26.5,17.0,30.21,NNW,347,0.0,0.0,67,0.00,,CLR,0.00,30.00,VWS V14.01,2013-01-26 13:24:00,
2013-01-26 08:29:00,26.6,17.8,30.21,NNW,344,1.0,2.0,69,0.00,,CLR,0.00,33.00,VWS V14.01,2013-01-26 13:29:00,
2013-01-26 08:35:00,26.6,17.8,30.21,NW,318,2.0,5.0,69,0.00,,CLR,0.00,40.00,VWS V14.01,2013-01-26 13:35:00,
2013-01-26 08:40:00,26.6,17.8,30.21,NW,318,0.0,2.0,69,0.00,,CLR,0.00,44.00,VWS V14.01,2013-01-26 13:40:00,
2013-01-26 08:45:00,26.8,18.0,30.21,NW,318,0.0,2.0,69,0.00,,CLR,0.00,51.00,VWS V14.01,2013-01-26 13:45:00,
2013-01-26 08:50:00,26.9,18.1,30.21,NW,318,0.0,0.0,69,0.00,,CLR,0.00,56.00,VWS V14.01,2013-01-26 13:50:00,
2013-01-26 08:55:00,27.1,18.6,30.21,NW,318,0.0,0.0,70,0.00,,CLR,0.00,69.00,VWS V14.01,2013-01-26 13:55:00,
2013-01-26 09:00:00,27.1,19.0,30.21,NW,318,0.0,0.0,71,0.00,,CLR,0.00,76.00,VWS V14.01,2013-01-26 14:00:00,
2013-01-26 09:05:00,27.2,19.1,30.22,NW,318,0.0,0.0,71,0.00,,CLR,0.00,84.00,VWS V14.01,2013-01-26 14:05:00,
2013-01-26 09:10:00,27.2,19.4,30.22,NW,318,0.0,0.0,72,0.00,,CLR,0.00,86.00,VWS V14.01,2013-01-26 14:10:00,
2013-01-26 09:15:00,27.4,19.6,30.22,NW,318,0.0,0.0,72,0.00,,CLR,0.00,106.00,VWS V14.01,2013-01-26 14:15:00,
2013-01-26 09:20:00,27.5,19.7,30.22,SE,137,0.0,2.0,72,0.00,,CLR,0.00,111.00,VWS V14.01,2013-01-26 14:20:00,
2013-01-26 09:25:00,27.5,20.0,30.22,SE,137,2.0,2.0,73,0.00,,CLR,0.00,118.00,VWS V14.01,2013-01-26 14:25:00,
2013-01-26 09:31:00,27.4,20.2,30.22,SE,137,0.0,3.0,74,0.00,,CLR,0.00,127.00,VWS V14.01,2013-01-26 14:31:00,
2013-01-26 09:36:00,27.4,20.2,30.22,SE,137,0.0,0.0,74,0.00,,CLR,0.00,134.00,VWS V14.01,2013-01-26 14:36:00,
2013-01-26 09:41:00,27.5,20.3,30.22,SE,137,0.0,0.0,74,0.00,,CLR,0.00,137.00,VWS V14.01,2013-01-26 14:41:00,
2013-01-26 09:46:00,27.7,20.5,30.22,SE,137,0.0,0.0,74,0.00,,CLR,0.00,146.00,VWS V14.01,2013-01-26 14:46:00,
2013-01-26 09:51:00,27.8,20.6,30.23,SE,137,0.0,0.0,74,0.00,,CLR,0.00,141.00,VWS V14.01,2013-01-26 14:51:00,
2013-01-26 09:56:00,28.1,20.9,30.23,SE,137,0.0,0.0,74,0.00,,CLR,0.00,144.00,VWS V14.01,2013-01-26 14:56:00,
2013-01-26 10:01:00,28.3,20.8,30.23,SE,137,0.0,0.0,73,0.00,,CLR,0.00,148.00,VWS V14.01,2013-01-26 15:01:00,
2013-01-26 10:06:00,28.3,20.8,30.24,SE,137,0.0,0.0,73,0.00,,CLR,0.00,146.00,VWS V14.01,2013-01-26 15:06:00,
2013-01-26 10:11:00,28.4,20.9,30.24,SE,137,0.0,0.0,73,0.00,,CLR,0.00,150.00,VWS V14.01,2013-01-26 15:11:00,
2013-01-26 10:16:00,28.7,20.8,30.24,SE,137,0.0,0.0,72,0.00,,CLR,0.00,150.00,VWS V14.01,2013-01-26 15:16:00,
2013-01-26 10:21:00,28.8,20.6,30.25,SE,137,0.0,0.0,71,0.00,,CLR,0.00,148.00,VWS V14.01,2013-01-26 15:21:00,
2013-01-26 10:27:00,29.1,20.5,30.25,SE,137,0.0,0.0,70,0.00,,CLR,0.00,144.00,VWS V14.01,2013-01-26 15:27:00,
2013-01-26 10:32:00,29.0,20.8,30.25,SE,137,0.0,0.0,71,0.00,,CLR,0.00,135.00,VWS V14.01,2013-01-26 15:32:00,
2013-01-26 10:37:00,29.0,21.1,30.25,SE,137,0.0,0.0,72,0.00,,CLR,0.00,151.00,VWS V14.01,2013-01-26 15:37:00,
2013-01-26 10:42:00,28.7,21.5,30.25,SE,137,0.0,0.0,74,0.00,,CLR,0.00,169.00,VWS V14.01,2013-01-26 15:42:00,
2013-01-26 10:47:00,28.7,21.8,30.25,SE,137,0.0,0.0,75,0.00,,CLR,0.00,160.00,VWS V14.01,2013-01-26 15:47:00,
2013-01-26 10:52:00,28.7,21.8,30.25,SE,137,0.0,0.0,75,0.00,,CLR,0.00,169.00,VWS V14.01,2013-01-26 15:52:00,
2013-01-26 10:57:00,28.5,21.6,30.25,SE,137,0.0,0.0,75,0.00,,CLR,0.00,185.00,VWS V14.01,2013-01-26 15:57:00,
2013-01-26 11:02:00,28.5,21.9,30.25,SE,137,0.0,0.0,76,0.00,,CLR,0.00,174.00,VWS V14.01,2013-01-26 16:02:00,
2013-01-26 11:07:00,28.7,22.1,30.25,SE,137,0.0,0.0,76,0.00,,CLR,0.00,157.00,VWS V14.01,2013-01-26 16:07:00,
2013-01-26 11:13:00,28.8,21.9,30.25,SE,137,0.0,0.0,75,0.01,,CLR,0.01,167.00,VWS V14.01,2013-01-26 16:13:00,
2013-01-26 11:18:00,29.1,22.2,30.25,SE,137,0.0,0.0,75,0.01,,CLR,0.01,195.00,VWS V14.01,2013-01-26 16:18:00,
2013-01-26 11:23:00,29.1,22.5,30.25,SE,137,0.0,0.0,76,0.01,,CLR,0.01,169.00,VWS V14.01,2013-01-26 16:23:00,
2013-01-26 11:28:00,29.0,22.4,30.25,SE,137,0.0,0.0,76,0.01,,CLR,0.01,178.00,VWS V14.01,2013-01-26 16:28:00,
2013-01-26 11:33:00,29.1,22.5,30.25,SE,137,0.0,0.0,76,0.01,,CLR,0.01,218.00,VWS V14.01,2013-01-26 16:33:00,
2013-01-26 11:38:00,29.0,22.7,30.25,SE,137,0.0,0.0,77,0.01,,CLR,0.01,264.00,VWS V14.01,2013-01-26 16:38:00,
2013-01-26 11:43:00,29.1,22.8,30.25,SE,137,0.0,1.0,77,0.02,,CLR,0.02,232.00,VWS V14.01,2013-01-26 16:43:00,
2013-01-26 11:48:00,29.4,23.1,30.25,SE,137,0.0,0.0,77,0.03,,CLR,0.03,223.00,VWS V14.01,2013-01-26 16:48:00,
2013-01-26 11:54:00,29.9,23.6,30.24,SE,137,0.0,0.0,77,0.03,,CLR,0.03,252.00,VWS V14.01,2013-01-26 16:54:00,
2013-01-26 11:59:00,29.9,23.3,30.24,SE,137,0.0,1.0,76,0.03,,CLR,0.03,245.00,VWS V14.01,2013-01-26 16:59:00,
2013-01-26 12:04:00,30.0,23.7,30.24,SE,137,0.0,1.0,77,0.03,,CLR,0.03,276.00,VWS V14.01,2013-01-26 17:04:00,
2013-01-26 12:09:00,30.3,23.7,30.24,SE,137,0.0,0.0,76,0.03,,CLR,0.03,292.00,VWS V14.01,2013-01-26 17:09:00,
2013-01-26 12:14:00,30.5,23.5,30.24,SE,137,0.0,0.0,75,0.03,,CLR,0.03,296.00,VWS V14.01,2013-01-26 17:14:00,
2013-01-26 12:19:00,30.5,23.5,30.23,SE,137,0.0,0.0,75,0.03,,CLR,0.04,271.00,VWS V14.01,2013-01-26 17:19:00,
2013-01-26 12:24:00,30.3,23.0,30.23,NNW,340,0.0,3.0,74,0.03,,CLR,0.04,301.00,VWS V14.01,2013-01-26 17:24:00,
2013-01-26 12:29:00,30.6,23.3,30.23,North,349,0.0,0.0,74,0.04,,CLR,0.05,264.00,VWS V14.01,2013-01-26 17:29:00,
2013-01-26 12:35:00,31.2,23.9,30.23,North,349,0.0,0.0,74,0.04,,CLR,0.05,290.00,VWS V14.01,2013-01-26 17:35:00,
2013-01-26 12:40:00,31.5,23.5,30.23,North,349,0.0,1.0,72,0.04,,CLR,0.05,297.00,VWS V14.01,2013-01-26 17:40:00,
2013-01-26 12:45:00,31.5,23.2,30.23,NW,306,0.0,3.0,71,0.04,,CLR,0.05,285.00,VWS V14.01,2013-01-26 17:45:00,
2013-01-26 12:50:00,31.7,22.7,30.22,West,272,0.0,1.0,69,0.03,,CLR,0.05,303.00,VWS V14.01,2013-01-26 17:50:00,
2013-01-26 12:55:00,31.8,22.5,30.22,West,274,0.0,0.0,68,0.02,,CLR,0.05,292.00,VWS V14.01,2013-01-26 17:55:00,
2013-01-26 13:00:00,32.1,22.4,30.22,West,268,0.0,2.0,67,0.03,,CLR,0.06,276.00,VWS V14.01,2013-01-26 18:00:00,
2013-01-26 13:06:00,32.2,22.8,30.22,WSW,237,2.0,3.0,68,0.03,,CLR,0.06,274.00,VWS V14.01,2013-01-26 18:06:00,
2013-01-26 13:11:00,32.1,22.0,30.22,WSW,246,2.0,3.0,66,0.03,,CLR,0.06,232.00,VWS V14.01,2013-01-26 18:11:00,
2013-01-26 13:16:00,32.2,22.5,30.22,West,280,0.0,1.0,67,0.03,,CLR,0.07,201.00,VWS V14.01,2013-01-26 18:16:00,
2013-01-26 13:21:00,32.2,22.5,30.22,NW,312,0.0,2.0,67,0.03,,CLR,0.07,183.00,VWS V14.01,2013-01-26 18:21:00,
2013-01-26 13:26:00,32.1,22.8,30.22,NW,308,0.0,0.0,68,0.03,,CLR,0.07,197.00,VWS V14.01,2013-01-26 18:26:00,
2013-01-26 13:31:00,32.2,23.2,30.22,NW,308,0.0,0.0,69,0.03,,CLR,0.07,174.00,VWS V14.01,2013-01-26 18:31:00,
2013-01-26 13:36:00,32.2,22.8,30.23,NNW,332,0.0,1.0,68,0.02,,CLR,0.07,162.00,VWS V14.01,2013-01-26 18:36:00,
2013-01-26 13:42:00,31.9,22.5,30.23,WNW,287,0.0,3.0,68,0.02,,CLR,0.07,164.00,VWS V14.01,2013-01-26 18:42:00,
2013-01-26 13:47:00,31.8,22.8,30.23,NW,322,1.0,2.0,69,0.02,,CLR,0.07,171.00,VWS V14.01,2013-01-26 18:47:00,
2013-01-26 13:52:00,31.8,22.5,30.23,NW,325,0.0,2.0,68,0.02,,CLR,0.07,178.00,VWS V14.01,2013-01-26 18:52:00,
2013-01-26 13:57:00,31.7,22.0,30.23,NW,325,0.0,1.0,67,0.02,,CLR,0.07,165.00,VWS V14.01,2013-01-26 18:57:00,
2013-01-26 14:02:00,31.5,23.2,30.23,NW,326,0.0,1.0,71,0.02,,CLR,0.07,155.00,VWS V14.01,2013-01-26 19:02:00,
2013-01-26 14:07:00,31.5,22.9,30.24,ESE,107,1.0,2.0,70,0.01,,CLR,0.07,169.00,VWS V14.01,2013-01-26 19:07:00,
2013-01-26 14:12:00,31.5,23.2,30.24,East,95,0.0,3.0,71,0.01,,CLR,0.07,153.00,VWS V14.01,2013-01-26 19:12:00,
2013-01-26 14:17:00,31.4,22.8,30.24,East,93,0.0,2.0,70,0.00,,CLR,0.07,135.00,VWS V14.01,2013-01-26 19:17:00,
2013-01-26 14:22:00,31.4,21.7,30.24,NNE,27,1.0,4.0,67,0.00,,CLR,0.07,127.00,VWS V14.01,2013-01-26 19:22:00,
2013-01-26 14:28:00,31.4,22.1,30.24,East,97,0.0,1.0,68,0.00,,CLR,0.07,114.00,VWS V14.01,2013-01-26 19:28:00,
2013-01-26 14:33:00,31.4,22.1,30.24,East,88,0.0,2.0,68,0.00,,CLR,0.07,113.00,VWS V14.01,2013-01-26 19:33:00,
2013-01-26 14:38:00,31.4,22.1,30.24,East,92,3.0,3.0,68,0.00,,CLR,0.07,106.00,VWS V14.01,2013-01-26 19:38:00,
2013-01-26 14:43:00,31.2,22.2,30.24,North,0,4.0,12.0,69,0.00,,CLR,0.07,116.00,VWS V14.01,2013-01-26 19:43:00,
2013-01-26 14:48:00,31.1,22.1,30.24,ENE,58,3.0,5.0,69,0.00,,CLR,0.07,128.00,VWS V14.01,2013-01-26 19:48:00,
2013-01-26 14:53:00,30.9,21.2,30.24,NNE,27,3.0,6.0,67,0.00,,CLR,0.07,130.00,VWS V14.01,2013-01-26 19:53:00,
2013-01-26 14:58:00,31.2,20.5,30.24,NNW,332,1.0,8.0,64,0.00,,CLR,0.07,132.00,VWS V14.01,2013-01-26 19:58:00,
2013-01-26 15:03:00,31.5,19.6,30.24,North,0,11.0,11.0,61,0.00,,CLR,0.07,130.00,VWS V14.01,2013-01-26 20:03:00,
2013-01-26 15:09:00,31.5,19.6,30.25,North,4,3.0,11.0,61,0.00,,CLR,0.07,120.00,VWS V14.01,2013-01-26 20:09:00,
2013-01-26 15:14:00,31.4,19.5,30.25,NNW,330,2.0,12.0,61,0.00,,CLR,0.07,109.00,VWS V14.01,2013-01-26 20:14:00,
2013-01-26 15:19:00,31.4,19.1,30.25,North,357,5.0,8.0,60,0.00,,CLR,0.07,106.00,VWS V14.01,2013-01-26 20:19:00,
2013-01-26 15:24:00,31.4,19.5,30.25,North,359,3.0,10.0,61,0.00,,CLR,0.07,97.00,VWS V14.01,2013-01-26 20:24:00,
2013-01-26 15:29:00,31.4,18.7,30.25,North,350,8.0,12.0,59,0.00,,CLR,0.07,91.00,VWS V14.01,2013-01-26 20:29:00,
2013-01-26 15:34:00,31.2,18.5,30.25,NNW,339,8.0,14.0,59,0.00,,CLR,0.07,79.00,VWS V14.01,2013-01-26 20:34:00,
2013-01-26 15:39:00,31.1,18.5,30.25,NNE,16,10.0,16.0,59,0.00,,CLR,0.07,76.00,VWS V14.01,2013-01-26 20:39:00,
2013-01-26 15:44:00,31.1,18.9,30.25,North,0,8.0,16.0,60,0.00,,CLR,0.07,76.00,VWS V14.01,2013-01-26 20:44:00,
2013-01-26 15:50:00,31.1,18.1,30.26,NNE,14,7.0,11.0,58,0.00,,CLR,0.07,70.00,VWS V14.01,2013-01-26 20:50:00,
2013-01-26 15:55:00,31.1,19.2,30.26,North,8,7.0,11.0,61,0.00,,CLR,0.07,70.00,VWS V14.01,2013-01-26 20:55:00,
2013-01-26 16:00:00,31.1,18.9,30.26,North,356,6.0,8.0,60,0.00,,CLR,0.07,63.00,VWS V14.01,2013-01-26 21:00:00,
2013-01-26 16:05:00,31.1,18.1,30.27,NNE,14,4.0,13.0,58,0.00,,CLR,0.07,72.00,VWS V14.01,2013-01-26 21:05:00,
2013-01-26 16:10:00,31.1,19.2,30.27,NNE,13,8.0,8.0,61,0.00,,CLR,0.07,65.00,VWS V14.01,2013-01-26 21:10:00,
2013-01-26 16:15:00,31.1,18.1,30.27,North,3,5.0,12.0,58,0.00,,CLR,0.07,65.00,VWS V14.01,2013-01-26 21:15:00,
2013-01-26 16:20:00,31.1,17.2,30.27,NW,326,8.0,11.0,56,0.00,,CLR,0.07,58.00,VWS V14.01,2013-01-26 21:20:00,
2013-01-26 16:25:00,31.1,18.1,30.27,NNW,329,3.0,12.0,58,0.00,,CLR,0.07,58.00,VWS V14.01,2013-01-26 21:25:00,
2013-01-26 16:30:00,31.1,18.1,30.27,North,359,4.0,10.0,58,0.00,,CLR,0.07,60.00,VWS V14.01,2013-01-26 21:30:00,
2013-01-26 16:35:00,31.1,17.7,30.27,North,0,3.0,3.0,57,0.00,,CLR,0.07,60.00,VWS V14.01,2013-01-26 21:35:00,
2013-01-26 16:40:00,31.1,17.7,30.27,North,357,2.0,4.0,57,0.00,,CLR,0.07,35.00,VWS V14.01,2013-01-26 21:40:00,
2013-01-26 16:46:00,30.9,17.9,30.27,North,0,1.0,1.0,58,0.00,,CLR,0.07,25.00,VWS V14.01,2013-01-26 21:46:00,
2013-01-26 16:51:00,30.9,17.5,30.28,NNE,24,2.0,6.0,57,0.00,,CLR,0.07,25.00,VWS V14.01,2013-01-26 21:51:00,
2013-01-26 16:56:00,30.9,18.7,30.28,NNE,27,3.0,3.0,60,0.00,,CLR,0.07,19.00,VWS V14.01,2013-01-26 21:56:00,
2013-01-26 17:01:00,30.6,19.9,30.28,NE,35,3.0,8.0,64,0.00,,CLR,0.07,16.00,VWS V14.01,2013-01-26 22:01:00,
2013-01-26 17:06:00,30.3,20.3,30.29,NE,51,2.0,4.0,66,0.00,,CLR,0.07,16.00,VWS V14.01,2013-01-26 22:06:00,
2013-01-26 17:11:00,30.2,20.2,30.29,NE,42,3.0,6.0,66,0.00,,CLR,0.07,16.00,VWS V14.01,2013-01-26 22:11:00,
2013-01-26 17:16:00,30.0,19.7,30.29,North,7,0.0,1.0,65,0.00,,CLR,0.07,12.00,VWS V14.01,2013-01-26 22:16:00,
2013-01-26 17:22:00,29.9,19.6,30.30,North,0,2.0,3.0,65,0.00,,CLR,0.07,9.00,VWS V14.01,2013-01-26 22:22:00,
2013-01-26 17:27:00,29.7,19.4,30.30,NNE,20,3.0,8.0,65,0.00,,CLR,0.07,7.00,VWS V14.01,2013-01-26 22:27:00,
2013-01-26 17:32:00,30.0,17.8,30.30,North,0,2.0,8.0,60,0.00,,CLR,0.07,7.00,VWS V14.01,2013-01-26 22:32:00,
2013-01-26 17:37:00,30.2,17.2,30.30,NNE,16,2.0,6.0,58,0.00,,CLR,0.07,0.00,VWS V14.01,2013-01-26 22:37:00,
2013-01-26 17:42:00,30.2,17.6,30.30,NNE,21,3.0,8.0,59,0.00,,CLR,0.07,0.00,VWS V14.01,2013-01-26 22:42:00,
2013-01-26 17:47:00,30.2,18.0,30.30,NW,320,4.0,6.0,60,0.00,,CLR,0.07,0.00,VWS V14.01,2013-01-26 22:47:00,
2013-01-26 17:52:00,30.2,17.2,30.31,NNW,332,8.0,13.0,58,0.00,,CLR,0.07,0.00,VWS V14.01,2013-01-26 22:52:00,
2013-01-26 17:57:00,30.0,17.4,30.31,North,0,2.0,7.0,59,0.00,,CLR,0.07,0.00,VWS V14.01,2013-01-26 22:57:00,
2013-01-26 18:02:00,30.0,17.4,30.31,NNE,18,3.0,7.0,59,0.00,,CLR,0.07,0.00,VWS V14.01,2013-01-26 23:02:00,
2013-01-26 18:07:00,29.9,17.7,30.32,North,356,6.0,6.0,60,0.00,,CLR,0.07,0.00,VWS V14.01,2013-01-26 23:07:00,
2013-01-26 18:12:00,29.9,17.7,30.32,North,356,3.0,6.0,60,0.00,,CLR,0.07,0.00,VWS V14.01,2013-01-26 23:12:00,
2013-01-26 18:18:00,29.7,18.3,30.32,North,357,1.0,2.0,62,0.00,,CLR,0.07,0.00,VWS V14.01,2013-01-26 23:18:00,
2013-01-26 18:23:00,29.6,18.6,30.32,NNW,329,7.0,7.0,63,0.00,,CLR,0.07,0.00,VWS V14.01,2013-01-26 23:23:00,
2013-01-26 18:28:00,29.6,18.2,30.32,NE,45,3.0,7.0,62,0.00,,CLR,0.07,0.00,VWS V14.01,2013-01-26 23:28:00,
2013-01-26 18:33:00,29.7,18.3,30.32,NNE,32,0.0,7.0,62,0.00,,CLR,0.07,0.00,VWS V14.01,2013-01-26 23:33:00,
2013-01-26 18:38:00,29.7,17.9,30.33,NE,42,2.0,13.0,61,0.00,,CLR,0.07,0.00,VWS V14.01,2013-01-26 23:38:00,
2013-01-26 18:43:00,29.7,17.9,30.33,North,8,1.0,13.0,61,0.00,,CLR,0.07,0.00,VWS V14.01,2013-01-26 23:43:00,
2013-01-26 18:48:00,29.6,18.2,30.33,NNE,25,2.0,6.0,62,0.00,,CLR,0.07,0.00,VWS V14.01,2013-01-26 23:48:00,
2013-01-26 18:53:00,29.6,17.8,30.34,North,4,2.0,6.0,61,0.00,,CLR,0.07,0.00,VWS V14.01,2013-01-26 23:53:00,
2013-01-26 18:59:00,29.6,17.8,30.34,NE,44,3.0,3.0,61,0.00,,CLR,0.07,0.00,VWS V14.01,2013-01-26 23:59:00,
2013-01-26 19:04:00,29.4,17.2,30.34,North,356,6.0,8.0,60,0.00,,CLR,0.07,0.00,VWS V14.01,2013-01-27 00:04:00,
2013-01-26 19:09:00,29.4,16.9,30.35,NNE,17,2.0,3.0,59,0.00,,CLR,0.07,0.00,VWS V14.01,2013-01-27 00:09:00,
2013-01-26 19:14:00,29.4,17.6,30.35,North,11,0.0,3.0,61,0.00,,CLR,0.07,0.00,VWS V14.01,2013-01-27 00:14:00,
2013-01-26 19:19:00,29.4,17.2,30.35,NE,47,1.0,3.0,60,0.00,,CLR,0.07,0.00,VWS V14.01,2013-01-27 00:19:00,
2013-01-26 19:24:00,29.4,17.2,30.35,NE,37,2.0,7.0,60,0.00,,CLR,0.07,0.00,VWS V14.01,2013-01-27 00:24:00,
2013-01-26 19:29:00,29.4,17.2,30.35,North,0,2.0,7.0,60,0.00,,CLR,0.07,0.00,VWS V14.01,2013-01-27 00:29:00,
2013-01-26 19:34:00,29.4,17.6,30.36,North,8,3.0,7.0,61,0.00,,CLR,0.07,0.00,VWS V14.01,2013-01-27 00:34:00,
2013-01-26 19:39:00,29.4,17.2,30.36,North,4,3.0,3.0,60,0.00,,CLR,0.07,0.00,VWS V14.01,2013-01-27 00:39:00,
2013-01-26 19:44:00,29.3,17.1,30.36,NNE,18,2.0,5.0,60,0.00,,CLR,0.07,0.00,VWS V14.01,2013-01-27 00:44:00,
2013-01-26 19:49:00,29.4,17.2,30.36,North,0,6.0,6.0,60,0.00,,CLR,0.07,0.00,VWS V14.01,2013-01-27 00:49:00,
2013-01-26 19:55:00,29.4,17.6,30.36,North,357,2.0,6.0,61,0.00,,CLR,0.07,0.00,VWS V14.01,2013-01-27 00:55:00,
2013-01-26 20:00:00,29.3,17.9,30.36,North,0,3.0,8.0,62,0.00,,CLR,0.07,0.00,VWS V14.01,2013-01-27 01:00:00,
2013-01-26 20:05:00,29.3,17.5,30.37,NE,47,3.0,8.0,61,0.00,,CLR,0.07,0.00,VWS V14.01,2013-01-27 01:05:00,
2013-01-26 20:10:00,29.3,17.9,30.37,NNE,21,6.0,6.0,62,0.00,,CLR,0.07,0.00,VWS V14.01,2013-01-27 01:10:00,
2013-01-26 20:15:00,29.3,17.5,30.37,North,1,6.0,7.0,61,0.00,,CLR,0.07,0.00,VWS V14.01,2013-01-27 01:15:00,
2013-01-26 20:20:00,29.1,17.7,30.37,North,3,5.0,7.0,62,0.00,,CLR,0.07,0.00,VWS V14.01,2013-01-27 01:20:00,
2013-01-26 20:25:00,29.1,17.7,30.37,North,359,7.0,11.0,62,0.00,,CLR,0.07,0.00,VWS V14.01,2013-01-27 01:25:00,
2013-01-26 20:30:00,29.1,18.1,30.37,North,4,5.0,12.0,63,0.00,,CLR,0.07,0.00,VWS V14.01,2013-01-27 01:30:00,
2013-01-26 20:35:00,29.0,18.7,30.38,NNE,21,7.0,11.0,65,0.00,,CLR,0.07,0.00,VWS V14.01,2013-01-27 01:35:00,
2013-01-26 20:41:00,29.0,18.7,30.38,North,0,6.0,11.0,65,0.00,,CLR,0.07,0.00,VWS V14.01,2013-01-27 01:41:00,
2013-01-26 20:46:00,29.0,18.7,30.38,North,0,3.0,3.0,65,0.00,,CLR,0.07,0.00,VWS V14.01,2013-01-27 01:46:00,
2013-01-26 20:51:00,28.8,18.5,30.39,North,7,2.0,5.0,65,0.00,,CLR,0.07,0.00,VWS V14.01,2013-01-27 01:51:00,
2013-01-26 20:56:00,28.8,17.8,30.39,NNE,21,6.0,6.0,63,0.00,,CLR,0.07,0.00,VWS V14.01,2013-01-27 01:56:00,
2013-01-26 21:01:00,29.0,17.6,30.39,North,6,3.0,8.0,62,0.00,,CLR,0.07,0.00,VWS V14.01,2013-01-27 02:01:00,
2013-01-26 21:06:00,29.0,18.4,30.40,NNE,16,1.0,3.0,64,0.00,,CLR,0.07,0.00,VWS V14.01,2013-01-27 02:06:00,
2013-01-26 21:11:00,28.8,18.2,30.40,NNE,16,0.0,3.0,64,0.00,,CLR,0.07,0.00,VWS V14.01,2013-01-27 02:11:00,
2013-01-26 21:16:00,28.8,18.5,30.40,NE,55,2.0,5.0,65,0.00,,CLR,0.07,0.00,VWS V14.01,2013-01-27 02:16:00,
2013-01-26 21:21:00,28.7,18.1,30.40,NE,37,6.0,11.0,64,0.00,,CLR,0.07,0.00,VWS V14.01,2013-01-27 02:21:00,
2013-01-26 21:27:00,28.7,18.4,30.40,NNE,25,3.0,5.0,65,0.00,,CLR,0.07,0.00,VWS V14.01,2013-01-27 02:27:00,
2013-01-26 21:32:00,28.5,18.2,30.40,NNE,27,7.0,10.0,65,0.00,,CLR,0.07,0.00,VWS V14.01,2013-01-27 02:32:00,
2013-01-26 21:37:00,28.5,18.2,30.41,North,11,5.0,6.0,65,0.00,,CLR,0.07,0.00,VWS V14.01,2013-01-27 02:37:00,
2013-01-26 21:42:00,28.5,18.2,30.41,NNE,24,2.0,10.0,65,0.00,,CLR,0.07,0.00,VWS V14.01,2013-01-27 02:42:00,
2013-01-26 21:47:00,28.4,18.5,30.41,NNE,16,3.0,7.0,66,0.00,,CLR,0.07,0.00,VWS V14.01,2013-01-27 02:47:00,
2013-01-26 21:52:00,28.4,18.1,30.41,NNE,17,3.0,8.0,65,0.00,,CLR,0.07,0.00,VWS V14.01,2013-01-27 02:52:00,
2013-01-26 21:57:00,28.4,18.1,30.41,NNE,13,2.0,6.0,65,0.00,,CLR,0.07,0.00,VWS V14.01,2013-01-27 02:57:00,
2013-01-26 22:02:00,28.4,18.1,30.41,NNE,25,4.0,8.0,65,0.00,,CLR,0.07,0.00,VWS V14.01,2013-01-27 03:02:00,
2013-01-26 22:08:00,28.4,18.1,30.42,NNE,31,2.0,3.0,65,0.00,,CLR,0.07,0.00,VWS V14.01,2013-01-27 03:08:00,
2013-01-26 22:13:00,28.3,18.1,30.42,NNE,18,3.0,5.0,65,0.00,,CLR,0.07,0.00,VWS V14.01,2013-01-27 03:13:00,
2013-01-26 22:18:00,28.3,18.4,30.42,ENE,62,1.0,5.0,66,0.00,,CLR,0.07,0.00,VWS V14.01,2013-01-27 03:18:00,
2013-01-26 22:23:00,28.1,18.9,30.42,ENE,69,1.0,5.0,68,0.00,,CLR,0.07,0.00,VWS V14.01,2013-01-27 03:23:00,
2013-01-26 22:28:00,28.0,19.2,30.42,NNE,23,2.0,6.0,69,0.00,,CLR,0.07,0.00,VWS V14.01,2013-01-27 03:28:00,
2013-01-26 22:33:00,27.8,19.0,30.42,NNE,23,4.0,8.0,69,0.00,,CLR,0.07,0.00,VWS V14.01,2013-01-27 03:33:00,
2013-01-26 22:38:00,27.7,18.9,30.43,NE,56,5.0,7.0,69,0.00,,CLR,0.07,0.00,VWS V14.01,2013-01-27 03:38:00,
2013-01-26 22:43:00,27.7,18.5,30.43,NE,51,2.0,7.0,68,0.00,,CLR,0.07,0.00,VWS V14.01,2013-01-27 03:43:00,
2013-01-26 22:48:00,27.7,18.5,30.43,NE,47,1.0,6.0,68,0.00,,CLR,0.07,0.00,VWS V14.01,2013-01-27 03:48:00,
2013-01-26 22:54:00,27.7,18.5,30.44,NE,35,7.0,7.0,68,0.00,,CLR,0.07,0.00,VWS V14.01,2013-01-27 03:54:00,
2013-01-26 22:55:00,26.8,17.3,30.47,NE,37,2.0,6.0,67,0.00,,CLR,0.07,0.00,VWS V14.01,2013-01-27 03:55:00,
2013-01-26 22:56:00,26.8,17.3,30.47,NE,37,0.0,6.0,67,0.00,,CLR,0.07,0.00,VWS V14.01,2013-01-27 03:56:00,
2013-01-26 22:57:00,26.8,17.3,30.47,NE,37,1.0,6.0,67,0.00,,CLR,0.07,0.00,VWS V14.01,2013-01-27 03:57:00,
2013-01-26 22:58:00,26.8,17.3,30.47,NE,37,1.0,6.0,67,0.00,,CLR,0.07,0.00,VWS V14.01,2013-01-27 03:58:00,
2013-01-26 22:59:00,27.5,17.6,30.44,NE,51,3.0,6.0,66,0.00,,CLR,0.07,0.00,VWS V14.01,2013-01-27 03:59:00,
2013-01-26 23:00:00,26.8,17.3,30.46,NE,42,0.0,6.0,67,0.00,,CLR,0.07,0.00,VWS V14.01,2013-01-27 04:00:00,
2013-01-26 23:01:00,26.8,17.3,30.46,NE,44,0.0,2.0,67,0.00,,CLR,0.00,0.00,VWS V14.01,2013-01-27 04:01:00,
2013-01-26 23:02:00,26.8,17.7,30.46,NE,42,1.0,2.0,68,0.00,,CLR,0.00,0.00,VWS V14.01,2013-01-27 04:02:00,
2013-01-26 23:03:00,26.8,17.7,30.46,ENE,65,0.0,2.0,68,0.00,,CLR,0.00,0.00,VWS V14.01,2013-01-27 04:03:00,
2013-01-26 23:04:00,27.7,17.5,30.44,NNE,14,5.0,11.0,65,0.00,,CLR,0.07,0.00,VWS V14.01,2013-01-27 04:04:00,
2013-01-26 23:05:00,26.8,17.7,30.46,ENE,65,0.0,2.0,68,0.00,,CLR,0.00,0.00,VWS V14.01,2013-01-27 04:05:00,
2013-01-26 23:06:00,26.8,17.7,30.46,NE,54,2.0,2.0,68,0.00,,CLR,0.00,0.00,VWS V14.01,2013-01-27 04:06:00,
2013-01-26 23:07:00,26.8,17.7,30.46,ENE,58,1.0,3.0,68,0.00,,CLR,0.00,0.00,VWS V14.01,2013-01-27 04:07:00,
2013-01-26 23:08:00,26.8,17.7,30.46,NE,55,0.0,3.0,68,0.00,,CLR,0.00,0.00,VWS V14.01,2013-01-27 04:08:00,
2013-01-26 23:09:00,27.7,17.1,30.44,NNE,23,3.0,8.0,64,0.00,,CLR,0.07,0.00,VWS V14.01,2013-01-27 04:09:00,
2013-01-26 23:10:00,26.6,17.5,30.46,NE,47,0.0,3.0,68,0.00,,CLR,0.00,0.00,VWS V14.01,2013-01-27 04:10:00,
2013-01-26 23:11:00,26.6,17.5,30.46,NE,45,1.0,3.0,68,0.00,,CLR,0.00,0.00,VWS V14.01,2013-01-27 04:11:00,
2013-01-26 23:12:00,26.6,17.5,30.46,NE,42,1.0,3.0,68,0.00,,CLR,0.00,0.00,VWS V14.01,2013-01-27 04:12:00,
2013-01-26 23:13:00,26.6,17.5,30.46,NE,42,2.0,3.0,68,0.00,,CLR,0.00,0.00,VWS V14.01,2013-01-27 04:13:00,
2013-01-26 23:14:00,27.7,16.8,30.44,NE,37,6.0,8.0,63,0.00,,CLR,0.07,0.00,VWS V14.01,2013-01-27 04:14:00,
2013-01-26 23:15:00,26.6,17.5,30.46,NE,54,0.0,5.0,68,0.00,,CLR,0.00,0.00,VWS V14.01,2013-01-27 04:15:00,
2013-01-26 23:16:00,26.6,17.5,30.46,East,82,0.0,5.0,68,0.00,,CLR,0.00,0.00,VWS V14.01,2013-01-27 04:16:00,
2013-01-26 23:18:00,26.5,17.4,30.46,ENE,58,0.0,5.0,68,0.00,,CLR,0.00,0.00,VWS V14.01,2013-01-27 04:18:00,
2013-01-26 23:19:00,27.7,17.1,30.44,NE,48,2.0,5.0,64,0.00,,CLR,0.07,0.00,VWS V14.01,2013-01-27 04:19:00,
2013-01-26 23:20:00,26.5,17.0,30.46,ENE,64,0.0,5.0,67,0.00,,CLR,0.00,0.00,VWS V14.01,2013-01-27 04:20:00,
2013-01-26 23:22:00,26.5,17.0,30.46,ENE,69,0.0,3.0,67,0.00,,CLR,0.00,0.00,VWS V14.01,2013-01-27 04:22:00,
2013-01-26 23:23:00,26.5,17.0,30.46,ENE,69,0.0,3.0,67,0.00,,CLR,0.00,0.00,VWS V14.01,2013-01-27 04:23:00,
2013-01-26 23:24:00,27.5,16.9,30.45,ENE,71,2.0,7.0,64,0.00,,CLR,0.07,0.00,VWS V14.01,2013-01-27 04:24:00,
2013-01-26 23:26:00,26.3,16.9,30.46,ENE,64,2.0,5.0,67,0.00,,CLR,0.00,0.00,VWS V14.01,2013-01-27 04:26:00,
2013-01-26 23:29:00,27.4,17.2,30.45,NE,38,2.0,6.0,65,0.00,,CLR,0.07,0.00,VWS V14.01,2013-01-27 04:29:00,
2013-01-26 23:34:00,27.2,17.4,30.46,ENE,59,1.0,6.0,66,0.00,,CLR,0.07,0.00,VWS V14.01,2013-01-27 04:34:00,
2013-01-26 23:39:00,27.1,17.3,30.46,NE,49,1.0,5.0,66,0.00,,CLR,0.07,0.00,VWS V14.01,2013-01-27 04:39:00,
2013-01-26 23:45:00,26.9,17.4,30.46,NE,52,1.0,5.0,67,0.00,,CLR,0.07,0.00,VWS V14.01,2013-01-27 04:45:00,
2013-01-26 23:50:00,26.9,17.4,30.47,NE,37,3.0,5.0,67,0.00,,CLR,0.07,0.00,VWS V14.01,2013-01-27 04:50:00,
2013-01-26 23:55:00,26.9,17.4,30.47,NE,54,1.0,5.0,67,0.00,,CLR,0.07,0.00,VWS V14.01,2013-01-27 04:55:00,